Wind_Speed
40 41 41 43 41 37 33 29 27 24 22 21 20 18 17 15 13 14 14 15 16 18 20 21 22 21 24 24 25 27 28 25 16 37 33 36 35 33 35 35 35 35 31
39 40 42 44 43 40 35 31 28 25 22 20 19 18 16 15 14 14 15 15 18 20 20 20 22 23 25 26 28 30 28 29 27 30 37 36 32 33 39 36 36 32 27
36 39 39 42 44 42 38 33 29 25 22 20 20 18 16 14 14 14 13 16 17 17 19 22 23 25 25 24 27 29 29 29 28 33 31 34 42 38 39 33 33 31 25
35 37 39 43 45 43 39 35 30 27 23 22 20 17 15 14 13 12 13 15 16 18 20 22 19 20 23 25 28 31 30 28 25 27 33 32 32 34 23 20 23 29 26
35 36 37 40 43 42 39 36 31 28 24 22 19 17 15 13 12 12 11 15 17 18 17 14 20 23 23 26 26 27 26 26 28 27 29 30 30 22 13 19 19 19 24
34 35 33 39 42 43 40 37 32 29 25 22 19 17 14 12 11 10 12 15 16 16 15 20 25 28 24 23 25 27 28 31 30 29 28 27 34 14 18 20 18 12 6
31 32 35 39 41 43 41 38 34 30 26 23 18 16 14 12 9 10 12 14 15 17 20 24 27 25 23 26 28 27 29 32 33 35 30 32 29 16 19 16 17 14 8
30 30 34 37 37 40 40 38 35 31 27 22 18 15 12 11 9 10 12 13 14 19 22 21 22 24 23 24 28 28 31 33 27 33 30 32 33 17 19 18 22 15 16
33 34 34 37 37 39 38 39 35 30 25 21 18 14 12 10 10 11 10 11 17 18 20 20 20 22 23 25 28 29 31 25 33 31 33 31 30 10 13 13 14 10 5
34 36 38 40 41 39 40 39 34 29 24 20 16 13 11 11 10 11 8 13 17 17 18 20 17 19 24 27 28 27 26 30 30 34 39 36 27 6 12 12 14 16 10
31 33 35 38 41 42 40 38 32 26 21 18 15 12 11 10 10 10 9 14 15 16 17 21 19 20 24 27 26 29 27 31 31 25 27 25 24 11 13 12 13 16 14
33 35 35 37 34 39 39 34 28 25 21 16 13 12 10 9 9 9 10 14 13 15 18 20 19 22 24 24 25 23 25 29 27 22 23 21 16 8 11 11 11 11 16
32 32 35 35 36 38 36 31 26 23 19 15 13 12 10 8 8 8 12 13 12 14 17 16 16 20 21 21 22 22 18 25 25 25 21 24 20 16 11 7 5 11 27
28 29 33 35 35 35 32 30 26 22 17 15 13 11 10 8 7 10 12 10 13 14 15 13 15 18 18 19 21 21 19 22 23 22 23 25 25 17 16 10 12 22 29
27 28 28 30 33 30 28 26 22 18 17 16 13 11 9 7 8 7 10 14 15 14 14 14 16 18 21 23 22 20 19 22 21 20 24 21 19 21 14 14 17 23 20
25 24 25 25 26 27 23 16 13 12 13 9 8 7 6 7 7 9 12 12 12 12 14 11 15 16 18 20 19 19 17 21 22 23 22 22 19 18 17 19 22 20 27
23 22 20 21 20 21 21 20 17 9 9 9 8 7 6 5 6 10 11 10 9 10 9 12 15 15 17 19 20 19 17 22 24 20 22 22 20 21 19 20 24 25 25
18 17 19 22 23 20 19 16 13 13 13 9 6 5 4 4 7 9 8 7 8 9 11 12 15 16 17 19 21 17 15 21 22 21 22 21 21 23 21 18 24 26 27
15 15 17 18 16 16 15 12 11 11 10 8 6 4 2 5 7 7 6 6 8 12 13 13 14 17 19 19 22 20 16 20 25 23 22 22 21 21 19 22 28 30 30
14 21 21 19 17 15 12 11 10 8 8 8 7 4 3 4 5 6 6 6 9 12 14 14 13 17 19 20 20 19 18 20 24 24 25 24 22 18 13 24 31 34 30
22 19 19 17 14 12 10 9 8 7 5 4 2 2 4 5 9 8 6 8 10 13 14 16 15 15 17 19 19 18 16 19 24 25 24 26 23 21 14 22 35 36 32
22 19 16 13 11 11 11 10 8 5 4 3 2 3 4 4 5 6 7 8 9 13 14 15 17 16 17 18 18 19 18 18 23 26 26 24 21 19 14 8 34 33 31
19 18 15 14 14 12 9 6 4 4 2 1 2 3 6 6 6 6 7 9 12 14 14 15 16 17 17 17 18 17 18 21 28 29 29 24 19 18 15 14 35 34 34
18 18 17 15 12 10 7 5 3 2 1 0 2 4 5 6 7 7 9 11 12 14 13 15 15 15 16 18 19 18 16 21 28 31 31 28 21 18 17 16 33 34 35
17 17 15 12 11 8 5 4 3 3 1 1 3 4 6 5 6 7 8 10 12 13 16 16 16 15 16 19 19 16 18 25 27 27 32 29 25 16 17 14 33 34 32
18 16 14 11 8 6 5 3 1 1 3 3 4 6 6 6 8 10 9 10 10 13 14 17 16 15 17 18 18 16 23 26 29 30 33 24 17 14 11 17 33 34 36
Wind_Direction
194 195 198 202 204 204 204 203 204 205 208 212 215 224 229 241 250 262 273 284 287 292 294 295 295 297 295 294 292 287 278 258 263 288 288 289 288 278 282 277 272 263 261
193 192 196 203 202 203 204 204 205 205 205 209 215 221 232 243 253 265 278 284 291 293 294 294 296 300 297 297 295 290 280 273 261 279 286 288 282 284 285 271 266 261 253
188 190 192 197 200 202 204 204 204 203 204 209 213 223 233 242 255 268 276 287 291 292 294 295 299 303 301 303 297 292 286 279 268 267 283 295 287 283 277 261 251 254 245
187 189 190 194 199 202 203 203 203 203 205 209 215 225 232 243 257 267 280 289 293 293 295 299 304 307 303 301 297 293 290 283 277 280 289 286 284 287 257 232 240 240 228
186 189 193 193 199 200 201 202 202 202 207 210 216 221 231 243 254 273 281 293 292 295 300 298 306 308 301 298 300 296 292 293 291 287 289 289 288 270 216 226 229 230 223
189 190 188 190 194 199 199 200 200 201 203 208 214 221 230 236 261 267 283 290 291 301 289 301 310 311 310 302 300 299 298 295 295 287 291 292 300 238 220 210 207 201 224
193 188 186 187 189 194 197 196 196 197 199 207 212 219 225 248 258 274 285 294 295 301 296 307 312 310 308 311 309 303 303 294 291 296 296 293 297 237 203 198 194 205 209
189 190 184 185 184 190 195 194 193 194 198 203 209 212 233 246 256 273 287 290 299 298 303 309 311 310 316 311 304 304 305 302 303 304 296 296 301 279 226 209 196 224 229
188 185 186 184 180 185 187 192 191 191 196 201 204 217 229 247 258 273 284 288 296 300 305 308 307 315 315 311 312 306 302 306 313 314 312 315 317 234 227 190 188 211 246
190 188 181 181 181 182 187 188 187 192 195 196 205 220 231 249 262 275 271 296 293 297 309 311 314 314 316 315 312 310 312 310 322 328 329 334 342 226 186 184 206 217 205
187 177 175 180 182 185 186 184 185 187 187 192 210 220 240 250 263 271 271 297 291 293 299 300 314 316 316 316 318 319 307 323 327 327 322 327 330 229 221 227 233 217 261
169 165 168 176 173 179 179 177 180 181 183 194 211 230 247 251 263 256 281 294 286 287 293 303 317 320 319 318 319 320 323 333 325 328 325 327 343 218 243 259 277 217 174
161 159 160 164 170 172 169 169 172 178 185 195 208 231 244 256 263 261 291 288 284 294 301 303 310 317 320 327 329 324 329 336 326 326 330 322 327 323 260 242 253 162 139
151 147 149 152 155 161 168 172 174 179 188 198 208 223 246 261 255 291 291 294 301 303 307 302 311 320 328 336 338 336 324 338 327 321 322 316 317 311 235 223 161 139 135
136 137 137 139 149 158 167 172 179 191 198 197 210 227 229 237 280 282 287 298 297 304 301 293 308 328 333 339 339 329 329 337 331 325 319 311 306 304 196 210 162 149 134
124 126 131 138 148 156 160 159 179 187 183 200 209 207 237 266 270 265 287 290 293 300 298 289 309 324 328 328 323 321 327 332 329 324 324 318 307 301 175 178 170 154 142
106 111 120 133 145 160 168 165 156 159 170 175 191 220 226 257 258 281 286 291 295 307 287 293 300 318 324 327 324 318 323 331 327 321 325 319 307 307 184 185 167 147 147
112 129 152 167 175 171 171 169 168 170 173 187 202 215 231 248 274 284 285 293 303 303 292 284 295 315 321 323 325 310 319 329 325 321 325 323 322 317 186 186 167 158 151
147 156 170 174 172 171 162 163 168 172 179 186 191 177 275 263 281 283 288 286 306 300 298 291 301 316 319 322 325 321 315 329 324 319 327 328 319 319 199 182 168 161 156
192 191 172 158 151 152 153 166 175 182 192 193 192 225 229 273 288 290 306 311 313 303 302 296 302 316 313 321 323 323 313 328 325 319 322 323 315 316 287 181 176 159 167
187 164 158 152 151 149 166 171 161 163 187 209 230 247 260 263 274 276 285 309 309 304 307 309 308 311 316 322 319 320 315 320 318 317 319 318 316 315 311 179 174 168 166
159 148 144 141 144 148 147 146 150 166 197 224 235 293 319 298 294 276 291 310 311 310 310 306 302 310 322 323 320 319 314 315 316 316 313 310 303 298 283 265 170 169 166
145 137 135 138 140 138 134 141 153 179 184 169 265 312 318 313 304 287 290 306 314 319 318 310 302 307 317 322 321 321 319 324 320 313 306 305 304 302 282 262 172 166 168
143 141 138 136 135 133 132 130 133 144 140 323 317 321 319 306 303 306 298 307 316 321 320 318 314 316 319 324 322 323 321 323 319 318 320 313 308 301 278 256 172 170 170
136 135 135 138 143 141 129 125 122 129 111 52 6 331 312 308 314 312 308 313 324 323 318 315 316 321 325 322 321 321 327 322 321 326 330 319 314 290 257 230 172 170 166
142 139 132 131 139 137 122 113 137 67 30 5 337 332 316 312 309 303 310 319 319 330 325 320 318 326 329 327 326 327 328 327 330 334 337 331 317 296 260 189 172 168 166
Height
712 720 728 736 747 755 760 766 772 777 782 786 790 794 797 798 800 800 801 800 799 798 797 794 791 789 786 784 782 780 778 777 769 747 752 747 743 740 737 735 731 731 732
705 712 720 729 739 748 755 761 767 772 776 781 785 788 792 794 795 795 795 795 794 792 790 788 785 783 780 778 775 772 770 768 764 749 744 738 734 730 726 722 720 720 720
700 707 714 722 730 739 748 756 762 767 772 776 780 784 786 788 790 790 790 790 788 787 785 782 779 777 774 771 768 764 761 758 755 746 734 731 724 718 711 709 709 710 712
695 702 706 713 721 731 741 750 756 762 767 771 775 779 781 783 784 785 785 784 783 781 779 776 773 771 767 763 759 756 752 749 745 739 729 720 713 705 698 699 700 699 709
688 695 699 707 716 725 735 743 750 756 761 767 771 774 776 778 779 780 780 779 777 776 773 770 768 765 762 759 754 749 745 741 735 729 719 709 699 693 692 693 694 691 694
683 686 695 702 709 717 727 736 744 750 756 762 766 769 771 773 774 775 775 774 772 770 768 766 763 759 755 752 748 744 740 733 726 719 709 700 687 679 684 686 688 688 688
679 682 688 695 702 711 720 729 737 744 751 756 760 763 765 768 769 769 769 768 767 766 764 760 757 753 750 746 741 736 732 725 719 711 702 694 683 674 678 682 683 685 680
670 679 682 689 696 706 714 722 730 738 744 750 754 758 760 762 763 763 764 763 762 761 759 755 752 748 744 740 734 729 723 716 709 703 694 685 678 672 672 680 682 684 687
659 665 676 682 689 698 707 716 725 732 739 744 748 753 755 757 758 758 758 757 757 756 753 750 747 743 739 735 728 722 715 708 702 694 686 675 668 667 672 672 676 682 683
649 655 663 672 680 691 700 711 720 727 733 740 744 747 750 751 753 753 753 752 752 750 747 745 743 739 734 729 723 717 709 701 695 685 673 668 661 664 673 678 679 680 679
643 651 659 669 675 684 695 706 716 724 730 735 740 742 745 746 747 748 748 747 746 744 742 740 737 734 730 724 719 713 707 697 690 687 678 672 665 666 673 680 682 674 674
638 644 653 665 673 681 692 704 713 720 726 731 735 737 739 741 742 742 742 742 741 739 737 736 733 730 725 720 714 709 703 696 688 685 678 674 675 670 670 670 672 673 666
634 640 647 661 670 679 690 701 710 717 722 726 730 732 734 736 737 737 737 736 736 735 734 732 730 727 722 716 710 706 702 695 687 677 679 669 672 672 672 672 669 670 670
634 639 648 658 668 679 690 699 707 713 718 723 726 727 729 731 732 732 732 731 731 730 728 728 727 724 719 714 707 703 700 696 690 683 676 674 669 668 668 671 672 670 676
635 643 651 660 668 680 689 697 704 710 714 718 721 723 725 726 726 727 728 727 727 725 724 722 722 719 714 710 705 700 698 694 691 687 676 673 670 667 665 668 671 673 677
641 647 655 664 673 681 689 698 705 709 712 715 717 719 721 721 722 724 724 723 722 720 719 718 717 716 711 708 705 700 698 694 690 685 680 671 667 667 665 669 674 674 677
646 655 663 670 677 685 691 697 703 708 710 712 714 716 717 718 718 720 719 718 717 717 716 715 714 712 708 704 702 698 695 691 688 684 679 674 669 662 659 666 671 675 684
655 661 669 675 683 687 692 696 700 704 707 709 711 712 712 714 716 716 716 714 713 713 712 710 709 707 704 701 698 695 693 689 685 681 677 672 666 664 659 661 666 672 682
663 668 674 680 683 688 690 695 698 702 705 706 707 708 710 712 712 713 713 711 710 710 710 707 705 703 700 698 693 690 688 685 679 675 672 668 662 659 656 661 664 670 678
668 672 675 678 682 686 688 693 698 700 704 704 705 706 707 709 709 710 710 709 708 708 706 703 701 699 697 694 691 687 684 681 677 673 667 662 659 654 652 655 662 666 676
668 671 673 678 682 683 690 694 696 699 702 703 702 703 704 705 705 706 706 706 706 705 703 700 697 695 693 690 687 685 682 679 675 669 664 659 655 650 647 650 655 660 669
667 669 674 678 683 687 691 693 696 699 700 700 700 700 701 701 702 702 702 702 703 702 699 697 694 691 689 687 684 681 678 676 672 666 661 658 655 649 645 645 648 655 664
667 672 677 682 685 688 691 693 695 697 698 698 699 698 699 698 700 700 699 699 700 697 695 693 690 688 685 683 681 678 673 669 665 661 658 653 648 643 640 641 643 650 659
670 674 678 681 684 687 690 693 694 696 696 697 697 697 697 698 698 697 697 697 696 693 692 690 687 684 681 680 677 674 672 669 664 658 651 644 638 636 637 636 637 646 654
671 675 679 682 685 687 690 692 693 694 695 694 694 695 695 696 695 695 694 693 692 689 689 687 684 680 677 674 672 670 668 664 659 653 645 637 628 630 630 630 633 642 650
675 678 680 683 686 688 689 691 693 693 692 693 694 694 694 694 693 693 692 690 689 688 686 684 680 677 674 670 667 663 661 657 651 644 636 629 624 624 622 624 629 636 645